sat.trackr.live / text

‹ back to catalog

CHECKMATE 3

NORAD 56169 · 2023-050H

PAYLOAD ACTIVE UNKNOWN

§ Identity

Operator
Country
US
Launch date
2023-04-02
Launch site
AFWTR
Launch vehicle
Mass (kg)
RCS (m²)

External: N2YO · Heavens-Above · Gunter

§ Orbital elements

Epoch: 2026-09-21T14:19:19.033248Z

Period
103.96 min
Inclination
81.0059°
Eccentricity
0.0007581
Mean motion
13.85153071 rev/d
Perigee alt
940.1 km
Apogee alt
951.2 km
Semi-major
7,323.8 km
B*
4.4221e-7
RAAN
338.9222°
Arg perigee
61.4639°
Mean anomaly
298.7279°
Rev number
17,546

§ Raw data

CHECKMATE 31 56169U 23050H   26264.59674807  .00000012  00000+0  44221-6 0  99942 56169  81.0059 338.9222 0007581  61.4639 298.7279 13.85153071175462

JSON: /api/v1/satellites/56169 · /tle

For live sub-satellite position, see the globe view (requires WebGL).

§ Visibility from observer

Set your observer location to see the next 7 days of passes ≥ 10°. The values pass through the URL so the page stays shareable.

No JS? Fill the form by hand. The geolocation button needs JavaScript.